Погода в Краснополье

Украина / Сумская область     50°46′12″N   35°16′33″E
В апреле 2022 года жителям России запретили посещать сайт meteo.paraplan.net по решению Генеральной прокуратуры. Аудитория сайта уменьшилась в 10 раз. Владельцы сайта не видят смысла в поддержке погодного сервера в таких условиях. Сайт будет закрыт в октябре.
темп.,
°C
ветер,
м/с
пор.,
м/с
влажн.,
%
обл.,
%
осадки,
мм/ч
давл.,
гПа
погр.,
м
3 октября, пн
пн300:00+10зюз6993100 0.8 995597
03:00+8зюз71191100 1.5 996809
06:00+6зюз71294100 0.3 9981102
09:00+7юз81290100 1.2 9991226
12:00+8юз81490100 1.3 10011208
15:00+11юз9158099 1.7 10031222
18:00+10юз8158111 0.4 1004747
21:00+9ююз714845 0.4 1006624
4 октября, вт
вт400:00+9ююз7148798 0.0 1006764
03:00+9ююз81579100 0.0 1006794
06:00+9ююз91482100 0.1 1007773
09:00+8ююз51084100 1.4 1009769
12:00+11ююз71271100 0.1 10101311
15:00+8юз71284100 0.6 10121070
18:00+8юз6128457 0.3 1013701
21:00+8юз61187100 0.4 1014611
5 октября, ср
ср500:00+8юз61186100 0.1 1015718
03:00+8юз61190100 0.2 1015627
06:00+8зюз61190100 0.3 1016693
09:00+9зюз61091100 0.4 1018682
12:00+9з488424 0.9 1019686
15:00+10з697976 1.3 1020959
18:00+9зсз5985100 0.2 1022557
21:00+8з399352 0.2 1023328
6 октября, чт
чт600:00+7зюз3795100 0.0 1024164
03:00+8зюз4892100 0.0 1024257
06:00+7зюз489490 0.0 1024157
09:00+9зюз5108577 0.0 1024330
12:00+14зюз687280 0.0 1023623
15:00+14зюз5969100 0.0 1022573
18:00+12зюз49805 0.0 1023223
21:00+11зюз4118570 0.0 1023205
7 октября, пт
пт700:00+10з499021 0.0 1023165
03:00+9зсз38955 0.0 1023151
06:00+9сз389715 0.0 1024190
09:00+11ссз47880 0.0 1025280
12:00+14сз45610 0.0 1026722
15:00+16сз45510 0.0 1025940
18:00+12сз33710 0.0 102631
21:00+10ссз33790 0.0 102637